Temp
-11 -11 -11 -11 -11 -11 -11 -11 -12 -12 -11 -11 -12 -12 -12 -12 -12 -12 -12 -12 -13 -13 -13 -13 -13 -13 -13 -13 -14 -14 -13 -14 -14 -14 -14 -13 -13 -13 -13 -13 -13 -12 -12
-11 -11 -11 -11 -11 -11 -11 -11 -12 -11 -11 -12 -12 -12 -12 -12 -12 -12 -12 -12 -12 -12 -13 -13 -13 -13 -13 -13 -13 -13 -14 -14 -14 -14 -14 -14 -13 -13 -13 -13 -13 -13 -13
-11 -11 -11 -11 -11 -12 -12 -12 -12 -11 -12 -12 -12 -12 -12 -12 -12 -12 -12 -12 -12 -12 -13 -13 -13 -14 -14 -13 -14 -14 -14 -14 -14 -14 -14 -14 -13 -13 -13 -13 -13 -13 -13
-11 -11 -11 -11 -11 -11 -12 -12 -11 -11 -12 -12 -12 -12 -12 -12 -12 -12 -13 -12 -12 -12 -13 -13 -13 -14 -14 -14 -14 -14 -14 -14 -14 -14 -14 -14 -14 -13 -13 -13 -13 -13 -13
-11 -11 -11 -11 -11 -11 -11 -11 -12 -12 -12 -12 -12 -12 -12 -12 -13 -13 -12 -12 -12 -12 -12 -13 -13 -13 -14 -14 -14 -14 -14 -14 -14 -14 -13 -14 -13 -13 -13 -13 -13 -13 -13
-11 -10 -11 -11 -11 -11 -11 -12 -12 -12 -12 -12 -12 -12 -12 -13 -12 -13 -12 -12 -12 -12 -13 -13 -13 -13 -13 -14 -14 -14 -13 -14 -14 -14 -14 -13 -13 -13 -13 -13 -13 -13 -13
-11 -11 -11 -11 -11 -11 -11 -12 -12 -12 -12 -12 -12 -12 -12 -13 -12 -12 -12 -12 -12 -12 -12 -12 -13 -13 -13 -13 -13 -13 -14 -14 -13 -13 -13 -13 -13 -13 -13 -12 -12 -13 -13
-11 -11 -11 -11 -11 -11 -12 -12 -12 -12 -12 -12 -12 -12 -13 -13 -12 -12 -12 -12 -12 -12 -12 -12 -13 -13 -13 -13 -13 -13 -14 -13 -13 -13 -13 -13 -13 -12 -12 -12 -13 -13 -13
-11 -11 -11 -11 -11 -11 -11 -12 -12 -12 -12 -12 -12 -12 -13 -13 -12 -12 -12 -12 -12 -12 -12 -12 -13 -13 -13 -13 -13 -13 -13 -13 -13 -13 -13 -13 -12 -13 -12 -12 -13 -13 -13
-11 -11 -11 -11 -11 -11 -12 -12 -12 -12 -12 -12 -12 -12 -13 -13 -12 -12 -12 -12 -12 -12 -12 -12 -11 -11 -12 -12 -13 -13 -13 -13 -13 -13 -12 -12 -12 -12 -12 -12 -13 -12 -13
-11 -11 -11 -11 -11 -11 -12 -12 -12 -12 -12 -12 -12 -12 -13 -13 -12 -12 -11 -11 -12 -12 -12 -11 -11 -11 -11 -11 -11 -12 -12 -12 -12 -12 -12 -12 -12 -12 -12 -12 -12 -11 -12
-12 -12 -12 -12 -12 -12 -12 -12 -12 -12 -12 -12 -12 -12 -13 -12 -12 -12 -11 -11 -11 -12 -12 -11 -11 -11 -11 -11 -11 -11 -12 -12 -12 -12 -12 -12 -12 -12 -12 -12 -13 -12 -12
-12 -12 -13 -12 -12 -12 -13 -12 -12 -12 -12 -12 -12 -12 -12 -12 -12 -12 -11 -11 -11 -11 -11 -11 -11 -11 -11 -11 -11 -11 -12 -12 -12 -12 -13 -13 -13 -13 -13 -13 -13 -13 -12
-12 -13 -13 -13 -13 -13 -13 -12 -12 -12 -12 -12 -12 -12 -12 -12 -11 -11 -11 -11 -11 -11 -11 -11 -11 -10 -11 -11 -10 -10 -11 -11 -12 -12 -12 -12 -13 -12 -12 -12 -12 -12 -12
-12 -13 -13 -13 -13 -13 -13 -13 -13 -13 -12 -12 -12 -12 -12 -12 -11 -11 -11 -11 -11 -12 -12 -12 -11 -10 -11 -12 -12 -11 -11 -11 -12 -12 -12 -13 -12 -12 -12 -13 -13 -12 -13
-12 -13 -13 -13 -13 -13 -13 -13 -13 -13 -12 -12 -12 -12 -12 -12 -12 -11 -11 -11 -11 -11 -12 -11 -11 -11 -11 -11 -11 -12 -12 -12 -12 -12 -12 -12 -12 -12 -12 -12 -12 -13 -13
-12 -12 -13 -13 -13 -13 -13 -13 -13 -13 -13 -12 -12 -12 -12 -12 -12 -12 -12 -12 -12 -11 -12 -12 -11 -11 -11 -11 -12 -12 -12 -13 -13 -13 -13 -13 -13 -12 -12 -13 -13 -13 -13
-13 -12 -13 -13 -13 -13 -13 -13 -13 -13 -13 -12 -12 -12 -12 -12 -12 -12 -12 -12 -12 -12 -12 -12 -12 -12 -12 -12 -12 -12 -12 -13 -13 -13 -13 -13 -13 -13 -13 -13 -13 -13 -13
-12 -12 -13 -13 -13 -13 -13 -13 -13 -13 -13 -13 -13 -13 -13 -13 -12 -13 -12 -12 -12 -12 -12 -12 -12 -12 -12 -12 -12 -12 -13 -13 -12 -12 -13 -13 -13 -13 -13 -13 -13 -13 -13
-13 -12 -12 -13 -13 -13 -13 -13 -13 -13 -13 -13 -13 -13 -13 -13 -13 -13 -13 -13 -13 -13 -13 -13 -13 -13 -13 -13 -13 -13 -13 -13 -13 -13 -13 -13 -13 -13 -13 -13 -13 -13 -13
-13 -13 -13 -12 -13 -13 -13 -13 -13 -13 -13 -13 -13 -13 -13 -13 -13 -13 -13 -13 -13 -13 -13 -13 -13 -13 -13 -13 -13 -13 -13 -13 -13 -13 -13 -13 -13 -13 -13 -13 -13 -13 -13
-13 -13 -13 -13 -13 -13 -13 -13 -13 -13 -13 -13 -13 -13 -13 -13 -13 -13 -13 -13 -13 -13 -13 -13 -13 -13 -13 -13 -13 -13 -13 -13 -13 -13 -13 -13 -13 -13 -13 -13 -13 -14 -14
-13 -13 -13 -13 -13 -13 -13 -13 -13 -13 -13 -13 -13 -13 -13 -13 -13 -13 -13 -13 -13 -14 -14 -13 -13 -13 -13 -13 -14 -14 -13 -13 -13 -13 -13 -13 -13 -14 -14 -14 -14 -14 -14
-14 -14 -14 -14 -13 -13 -13 -13 -13 -13 -13 -13 -13 -13 -13 -13 -13 -13 -13 -13 -13 -13 -13 -13 -13 -13 -13 -13 -13 -13 -13 -13 -13 -13 -13 -13 -13 -13 -13 -14 -14 -14 -14
-13 -14 -14 -14 -14 -14 -14 -14 -14 -13 -13 -13 -13 -13 -13 -13 -13 -13 -13 -13 -13 -13 -13 -13 -13 -13 -13 -13 -13 -13 -13 -13 -13 -13 -13 -13 -13 -13 -13 -13 -13 -13 -13
-13 -13 -14 -13 -13 -14 -14 -14 -14 -14 -14 -14 -14 -14 -14 -14 -14 -14 -14 -14 -14 -14 -13 -14 -14 -14 -14 -14 -14 -13 -13 -13 -13 -13 -12 -12 -12 -12 -12 -13 -13 -13 -13
Height
5724 5725 5725 5724 5724 5723 5722 5721 5719 5717 5716 5715 5713 5712 5711 5710 5710 5708 5705 5703 5701 5698 5696 5696 5696 5697 5699 5701 5702 5704 5706 5710 5714 5719 5723 5727 5731 5735 5739 5744 5750 5754 5758
5719 5719 5719 5719 5719 5718 5717 5715 5713 5712 5712 5711 5710 5708 5708 5708 5707 5705 5703 5700 5697 5693 5693 5693 5694 5696 5697 5700 5702 5702 5705 5710 5714 5718 5722 5727 5731 5736 5739 5744 5748 5753 5758
5714 5715 5715 5714 5713 5711 5710 5710 5709 5709 5708 5707 5706 5706 5706 5706 5704 5702 5700 5699 5694 5693 5692 5692 5693 5695 5696 5698 5701 5703 5706 5710 5714 5718 5722 5726 5729 5735 5739 5744 5748 5753 5756
5710 5711 5710 5709 5708 5707 5706 5706 5705 5705 5705 5705 5704 5705 5705 5703 5701 5700 5698 5694 5691 5689 5689 5690 5692 5694 5696 5698 5701 5704 5707 5710 5713 5717 5722 5726 5730 5735 5739 5744 5749 5753 5757
5707 5707 5706 5705 5704 5702 5702 5701 5701 5701 5702 5703 5703 5703 5703 5701 5700 5699 5696 5692 5688 5686 5687 5688 5691 5693 5695 5698 5701 5704 5707 5710 5713 5718 5722 5727 5732 5735 5740 5745 5749 5754 5757
5704 5703 5703 5701 5700 5699 5699 5698 5698 5699 5700 5701 5702 5702 5701 5699 5699 5697 5695 5692 5690 5689 5689 5689 5690 5692 5694 5698 5701 5704 5707 5709 5713 5717 5722 5727 5732 5736 5740 5744 5750 5755 5760
5700 5700 5699 5698 5697 5696 5696 5695 5696 5697 5698 5699 5701 5701 5701 5699 5698 5697 5695 5693 5691 5691 5690 5689 5691 5693 5695 5698 5701 5704 5708 5711 5717 5720 5723 5728 5732 5736 5739 5745 5750 5754 5759
5697 5697 5696 5696 5694 5694 5693 5694 5694 5696 5697 5698 5700 5701 5700 5698 5698 5699 5697 5695 5693 5693 5692 5691 5692 5694 5696 5699 5702 5706 5709 5714 5718 5723 5727 5730 5735 5738 5741 5746 5750 5755 5759
5695 5694 5694 5693 5693 5692 5692 5693 5693 5694 5695 5697 5700 5701 5700 5699 5699 5699 5699 5697 5695 5693 5692 5691 5693 5695 5698 5701 5703 5708 5712 5717 5721 5725 5730 5734 5736 5740 5744 5748 5751 5755 5759
5692 5693 5692 5692 5691 5691 5692 5692 5693 5694 5695 5696 5700 5701 5701 5700 5700 5701 5701 5700 5697 5695 5694 5693 5694 5697 5701 5705 5708 5712 5715 5720 5724 5728 5732 5736 5739 5743 5746 5748 5752 5757 5760
5691 5691 5691 5690 5689 5689 5690 5691 5692 5693 5695 5696 5700 5701 5701 5701 5701 5702 5703 5703 5701 5700 5698 5698 5698 5701 5705 5708 5712 5717 5720 5723 5727 5731 5734 5736 5741 5745 5748 5752 5756 5758 5760
5690 5690 5690 5688 5688 5687 5688 5690 5691 5692 5694 5696 5699 5702 5702 5702 5703 5704 5705 5705 5705 5705 5705 5704 5705 5707 5709 5713 5716 5719 5723 5726 5728 5731 5734 5737 5742 5747 5751 5756 5759 5763 5765
5689 5689 5689 5688 5687 5686 5687 5689 5690 5692 5694 5697 5699 5702 5703 5703 5704 5706 5707 5707 5708 5709 5711 5711 5711 5712 5714 5716 5719 5722 5725 5728 5730 5733 5737 5742 5746 5750 5754 5758 5761 5764 5768
5688 5689 5689 5688 5686 5686 5686 5688 5689 5691 5693 5697 5700 5703 5704 5705 5705 5707 5708 5709 5710 5711 5714 5715 5717 5717 5719 5722 5723 5725 5728 5732 5735 5738 5742 5745 5749 5752 5756 5759 5763 5767 5769
5688 5689 5690 5689 5688 5687 5687 5687 5689 5691 5694 5698 5701 5703 5705 5706 5707 5709 5710 5711 5712 5715 5716 5719 5721 5721 5722 5726 5729 5731 5733 5736 5739 5741 5746 5750 5754 5756 5759 5762 5765 5768 5770
5688 5689 5690 5690 5689 5688 5688 5690 5691 5693 5695 5699 5702 5705 5706 5707 5709 5711 5712 5713 5715 5717 5719 5721 5723 5725 5726 5728 5731 5734 5737 5739 5742 5746 5750 5753 5755 5758 5761 5764 5766 5768 5769
5689 5690 5691 5692 5690 5690 5691 5692 5694 5696 5698 5701 5704 5706 5708 5710 5712 5714 5715 5716 5718 5720 5722 5725 5727 5729 5731 5732 5734 5737 5740 5743 5747 5750 5752 5755 5757 5759 5762 5764 5765 5767 5768
5690 5692 5693 5694 5693 5694 5694 5695 5698 5699 5702 5704 5706 5708 5710 5712 5715 5717 5719 5720 5722 5724 5726 5729 5731 5733 5734 5736 5738 5740 5743 5745 5748 5750 5753 5755 5758 5760 5761 5763 5764 5764 5765
5691 5692 5694 5695 5697 5698 5698 5699 5700 5702 5704 5706 5708 5711 5713 5715 5717 5719 5722 5724 5726 5727 5729 5731 5733 5735 5737 5738 5740 5743 5745 5747 5749 5751 5753 5756 5757 5759 5761 5762 5763 5764 5764
5692 5693 5694 5697 5699 5701 5702 5703 5704 5705 5706 5709 5711 5714 5717 5719 5721 5722 5724 5725 5727 5729 5731 5733 5734 5736 5738 5740 5742 5745 5747 5748 5750 5752 5753 5755 5757 5758 5758 5759 5760 5761 5761
5691 5694 5696 5697 5700 5702 5705 5707 5708 5709 5710 5711 5713 5716 5718 5720 5722 5724 5726 5727 5729 5730 5732 5734 5735 5738 5740 5742 5743 5745 5747 5749 5750 5751 5753 5754 5755 5756 5756 5757 5757 5758 5758
5689 5691 5694 5697 5699 5702 5705 5707 5710 5711 5712 5713 5715 5716 5718 5720 5722 5724 5726 5727 5729 5731 5732 5734 5736 5737 5739 5741 5743 5744 5746 5747 5749 5750 5751 5752 5752 5753 5753 5754 5754 5753 5753
5686 5689 5691 5694 5697 5700 5704 5706 5708 5711 5713 5715 5716 5717 5718 5719 5721 5722 5724 5726 5728 5730 5732 5733 5735 5736 5737 5738 5739 5741 5742 5743 5744 5745 5746 5747 5748 5748 5748 5748 5748 5747 5746
5680 5685 5688 5690 5694 5697 5700 5704 5707 5709 5712 5714 5716 5717 5719 5720 5721 5723 5724 5725 5727 5728 5729 5731 5732 5733 5734 5735 5736 5737 5737 5737 5738 5739 5740 5740 5741 5741 5741 5741 5741 5740 5738
5675 5678 5682 5684 5688 5692 5695 5699 5702 5705 5708 5710 5712 5714 5715 5717 5718 5720 5721 5723 5725 5726 5727 5729 5729 5729 5730 5731 5732 5732 5733 5732 5732 5732 5731 5732 5732 5732 5732 5732 5731 5730 5729
5670 5673 5676 5680 5683 5686 5689 5692 5695 5698 5701 5703 5704 5706 5708 5710 5712 5713 5714 5716 5717 5719 5720 5721 5722 5722 5723 5724 5724 5725 5726 5727 5726 5725 5725 5725 5726 5727 5727 5726 5724 5722 5721
Wind_Speed
19 18 17 17 18 18 17 19 22 19 16 15 15 15 13 13 12 13 15 16 19 13 9 6 2 3 9 11 10 11 22 21 20 21 21 22 22 23 23 23 24 24 25
16 14 15 15 17 18 19 20 18 17 15 15 14 12 11 11 11 12 14 15 19 15 8 3 2 5 9 15 11 14 20 23 21 21 22 22 22 23 23 22 24 23 22
13 13 12 15 15 16 17 18 15 15 15 13 13 9 10 9 10 11 13 13 13 12 10 4 4 7 8 13 14 15 20 20 22 22 22 22 24 23 23 20 21 21 22
12 11 12 13 13 14 14 14 16 16 15 12 10 7 8 7 9 10 11 12 11 9 6 6 8 10 11 13 13 14 15 19 23 23 22 22 23 22 23 22 19 18 17
11 10 11 12 14 16 17 17 17 15 14 11 8 7 5 8 5 6 10 13 9 1 3 8 10 11 14 15 12 13 14 18 21 21 23 23 21 21 22 20 21 18 13
10 9 11 11 10 10 10 12 11 11 11 10 8 5 4 4 5 6 9 12 7 5 5 6 9 12 15 15 15 16 17 21 24 23 22 22 23 22 21 21 20 17 16
9 8 7 7 6 6 6 6 9 9 7 8 6 5 0 3 5 6 7 8 6 3 4 4 10 13 12 16 16 18 20 22 20 20 22 24 22 16 27 22 20 22 22
7 7 6 5 4 6 5 5 6 6 6 8 5 4 1 2 3 3 10 12 7 6 3 3 8 15 16 14 15 17 20 21 21 21 24 23 22 19 20 28 21 22 16
7 6 5 4 6 6 5 7 7 6 7 9 5 3 1 2 4 4 9 12 12 11 3 3 9 15 17 16 18 19 20 20 19 18 18 20 22 26 17 20 16 20 24
7 7 5 4 6 7 6 7 7 7 7 11 7 3 3 3 6 7 9 11 11 15 11 8 13 17 20 19 21 21 21 21 20 21 20 19 20 19 20 24 28 26 28
7 6 4 4 5 6 7 5 5 8 9 12 9 5 5 6 7 6 7 9 10 18 19 16 17 19 23 24 23 23 20 18 20 21 16 13 21 22 25 27 25 25 30
7 5 3 1 0 3 6 7 3 7 11 12 11 8 7 6 5 6 6 7 11 16 21 23 22 17 18 21 21 19 17 16 19 15 18 22 24 24 28 21 19 20 20
8 6 5 5 4 2 4 6 7 9 12 10 12 9 9 6 6 8 8 9 15 16 15 20 22 22 19 17 16 18 22 20 19 26 29 26 24 27 28 29 25 21 19
8 7 6 7 7 5 3 5 5 11 15 12 13 9 9 5 4 8 8 11 15 18 16 16 15 21 22 18 16 19 20 24 28 22 19 19 26 29 28 26 23 18 13
8 9 7 7 7 7 6 6 9 12 17 14 15 11 8 7 11 11 10 12 15 16 17 14 16 21 24 21 20 18 19 22 20 22 25 25 24 24 24 22 18 13 10
9 10 10 9 9 9 9 7 9 14 15 16 14 10 7 10 12 14 13 14 15 16 16 18 20 20 25 24 23 20 17 16 18 22 22 19 20 21 20 17 13 10 8
11 12 12 11 13 11 11 11 11 14 15 16 12 11 12 13 14 15 15 15 15 16 17 17 17 18 18 18 18 18 18 17 16 16 16 15 16 17 16 14 11 8 7
12 12 13 12 13 13 12 14 14 14 13 13 13 15 15 16 16 16 17 17 18 18 16 15 14 14 14 14 15 15 15 15 14 15 15 16 17 15 13 12 11 10 10
13 13 14 13 12 12 13 15 15 15 15 15 15 14 15 17 18 17 15 13 12 13 13 14 13 12 12 12 13 14 14 15 15 15 15 15 14 13 13 13 12 11 12
11 13 14 13 13 11 11 13 15 17 18 19 19 18 17 15 13 12 12 12 12 11 10 8 10 12 12 12 14 14 13 13 13 13 12 12 12 12 12 11 11 12 13
13 13 14 15 13 13 12 11 12 14 16 16 17 17 16 14 13 11 10 9 8 8 8 9 10 10 11 12 13 11 9 9 10 10 9 8 9 10 11 12 13 14 15
17 15 15 16 16 15 14 13 11 12 14 16 17 17 16 14 13 11 10 9 8 8 7 8 8 9 11 12 13 13 12 12 13 12 10 10 12 13 13 13 15 16 17
21 20 18 16 16 16 17 17 16 15 13 13 15 15 16 15 15 14 13 12 10 8 6 6 6 7 8 10 12 12 15 18 20 20 20 19 18 18 19 19 20 21 22
24 23 23 21 19 17 17 18 19 18 17 16 15 15 15 14 14 14 14 13 13 13 13 13 13 13 13 13 13 14 15 18 20 22 24 23 22 22 23 24 25 26 27
27 27 26 25 23 24 22 20 19 20 21 21 22 22 22 22 21 20 19 19 18 18 19 19 19 21 21 21 21 21 22 24 24 26 27 27 27 28 28 28 28 29 30
20 22 29 26 27 27 26 25 25 25 25 24 24 24 25 26 26 26 27 26 26 26 26 26 26 27 27 28 29 29 30 31 32 33 34 32 31 31 31 31 32 34 34
Wind_Direction
250 257 265 265 265 262 268 272 275 274 268 263 270 276 278 280 280 283 293 294 299 318 258 241 310 246 200 191 171 185 186 183 184 187 187 187 184 178 181 186 188 188 195
250 259 261 257 262 268 270 269 274 276 264 261 274 275 276 281 284 291 301 301 290 292 290 202 231 200 202 200 218 185 178 187 183 180 180 183 187 184 185 186 186 188 192
258 250 250 266 278 278 270 269 265 270 261 263 275 272 277 284 288 301 302 300 306 297 284 255 208 183 179 181 167 158 174 179 181 177 182 182 190 189 186 185 189 194 196
240 238 258 269 274 275 274 268 265 261 254 263 265 256 280 288 308 317 313 313 298 287 263 186 175 181 172 170 159 158 162 170 173 179 179 182 188 186 189 184 182 182 188
228 250 268 273 274 271 267 264 261 248 244 256 236 247 272 308 325 328 349 351 352 54 125 158 174 170 170 175 175 171 169 172 175 175 179 179 179 180 175 175 181 177 174
231 255 276 278 269 273 272 264 245 229 232 239 215 249 289 350 347 343 355 6 28 110 133 139 168 168 165 168 172 178 176 171 170 172 173 171 175 175 179 175 179 167 182
235 264 276 266 270 280 272 253 232 224 221 208 194 209 16 332 22 8 21 12 54 57 96 32 167 171 161 169 170 172 172 174 170 170 166 160 163 152 173 174 177 168 168
240 263 244 253 290 298 269 263 239 218 206 181 193 207 13 358 45 30 52 50 54 68 82 48 134 161 162 152 153 161 163 164 164 167 164 161 161 149 152 170 177 185 193
240 238 232 290 278 280 254 258 241 206 190 185 186 202 25 28 112 79 61 43 43 50 69 132 137 157 155 151 150 153 152 152 158 161 161 161 154 153 146 159 166 150 140
224 232 250 267 275 251 238 248 230 201 191 194 179 180 122 91 114 97 83 54 47 52 72 92 127 141 152 147 145 148 144 139 144 150 156 154 162 157 153 150 144 145 133
224 229 243 253 260 250 226 221 215 207 197 201 174 170 142 130 108 92 100 77 71 71 74 90 109 130 144 141 135 138 142 138 140 139 147 159 170 164 156 152 148 147 145
208 203 195 113 123 209 204 198 199 196 186 188 168 161 147 140 118 94 110 95 112 95 84 85 92 113 139 146 152 154 147 144 144 151 156 148 155 161 154 151 138 141 141
189 163 128 94 86 146 192 210 206 193 173 174 162 163 150 120 113 112 115 113 130 129 103 91 92 99 102 123 140 143 146 148 144 136 135 139 142 142 146 145 153 152 156
174 155 119 73 58 81 137 179 180 179 169 160 158 157 146 121 119 127 118 129 136 140 124 112 101 103 106 107 129 141 144 144 142 134 140 143 150 151 151 151 154 156 150
170 148 115 81 69 76 83 136 151 158 156 152 154 155 149 137 134 136 132 135 140 145 143 129 121 118 112 114 121 128 131 140 144 140 141 145 151 149 147 152 157 162 169
165 148 122 90 83 82 91 127 150 144 148 149 152 152 141 138 131 135 131 127 134 142 136 136 135 129 124 122 121 125 131 131 131 139 150 154 157 156 157 161 168 182 192
160 150 131 105 91 98 93 117 134 139 143 149 150 141 135 135 131 131 134 132 129 133 137 139 133 130 129 130 130 129 131 135 144 152 157 159 161 167 172 180 196 213 224
158 159 144 121 105 101 107 119 127 136 137 142 142 136 137 139 134 134 133 133 132 129 129 131 136 138 136 139 143 144 148 152 158 164 166 170 175 181 192 206 224 232 234
170 166 162 141 126 118 113 121 134 134 136 132 131 133 140 140 140 141 140 137 137 138 143 147 152 155 158 159 157 156 156 157 159 165 172 181 190 197 209 225 235 241 247
185 176 171 166 147 137 134 129 129 128 131 138 137 133 140 139 141 141 144 141 138 133 132 145 162 159 156 155 153 151 155 164 174 183 191 201 214 227 237 244 250 255 259
181 188 182 179 179 163 149 148 153 150 147 146 146 146 142 141 141 142 141 137 132 128 133 145 147 156 158 162 166 171 183 194 195 198 205 216 229 237 240 248 253 260 269
187 180 195 194 191 195 186 174 166 163 161 158 159 159 159 160 161 162 162 163 165 166 167 172 181 186 197 204 210 217 224 219 212 217 230 243 251 258 264 269 270 274 278
194 193 191 195 203 205 209 210 202 197 192 184 180 181 179 177 179 182 183 185 187 190 194 194 199 208 219 225 226 224 223 226 230 237 246 253 252 252 257 265 274 281 284
189 195 200 199 203 208 213 219 224 226 224 223 224 222 219 218 218 219 220 221 221 222 225 228 231 234 235 236 239 244 247 247 247 250 254 258 260 261 263 267 272 277 283
202 197 199 199 205 211 215 218 222 226 229 231 233 238 243 246 248 251 254 256 257 258 259 260 260 260 258 256 255 256 256 258 258 260 262 263 265 268 273 276 278 278 278
256 235 204 214 214 214 213 218 224 226 228 227 228 230 233 236 242 247 250 252 254 256 258 258 259 260 262 265 267 268 271 273 276 278 280 282 285 285 285 284 282 279 277